This is the latest recevied weather packets stored in our database for station/object G4KVI. If no packets are shown the sender has not sent any weather packets the latest 1 day(s).
| Time | Temp. | Humidity | Pressure | Rain* | Wind** | Luminosity | Snow |
|---|---|---|---|---|---|---|---|
| 1778006468 | 12.78° C | 59% | 1014.7 hPa | 0 mm | 0.89 m/s, 11° | 39 W/m² | - |
| 1778006168 | 13.33° C | 58% | 1015.1 hPa | 0 mm | 0.89 m/s, 356° | 44 W/m² | - |
| 1778005868 | 13.33° C | 58% | 1014.6 hPa | 0 mm | 0.89 m/s, 18° | 49 W/m² | - |
| 1778005568 | 13.33° C | 57% | 1014.8 hPa | 0 mm | 1.34 m/s, 16° | 53 W/m² | - |
| 1778005268 | 13.33° C | 56% | 1014.8 hPa | 0 mm | 1.34 m/s, 355° | 57 W/m² | - |
| 1778004968 | 13.33° C | 56% | 1014.7 hPa | 0 mm | 1.34 m/s, 349° | 64 W/m² | - |
| 1778004668 | 13.33° C | 55% | 1014.8 hPa | 0 mm | 1.34 m/s, 31° | 68 W/m² | - |
| 1778004368 | 13.33° C | 56% | 1014.8 hPa | 0 mm | 1.34 m/s, 62° | 75 W/m² | - |
| 1778004068 | 13.33° C | 56% | 1014.6 hPa | 0 mm | 1.34 m/s, 57° | 91 W/m² | - |
| 1778003768 | 13.33° C | 56% | 1015 hPa | 0 mm | 1.79 m/s, 60° | 87 W/m² | - |
| 1778003468 | 13.89° C | 56% | 1014.8 hPa | 0 mm | 1.79 m/s, 29° | 95 W/m² | - |
| 1778003168 | 13.89° C | 57% | 1014.8 hPa | 0 mm | 1.79 m/s, 339° | 104 W/m² | - |
| 1778002868 | 13.89° C | 56% | 1014.8 hPa | 0 mm | 1.34 m/s, 348° | 91 W/m² | - |
| 1778002568 | 14.44° C | 56% | 1014.8 hPa | 0 mm | 1.34 m/s, 13° | 100 W/m² | - |
| 1778002268 | 14.44° C | 55% | 1014.8 hPa | 0 mm | 1.34 m/s, 6° | 111 W/m² | - |
| 1778001968 | 14.44° C | 54% | 1015 hPa | 0 mm | 1.34 m/s, 346° | 122 W/m² | - |
| 1778001668 | 14.44° C | 54% | 1014.8 hPa | 0 mm | 1.34 m/s, 339° | 143 W/m² | - |
| 1778001368 | 14.44° C | 53% | 1014.9 hPa | 0 mm | 1.79 m/s, 351° | 145 W/m² | - |
| 1778001068 | 14.44° C | 54% | 1015 hPa | 0 mm | 1.34 m/s, 360° | 195 W/m² | - |
| 1778000768 | 14.44° C | 54% | 1014.7 hPa | 0 mm | 1.79 m/s, 355° | 130 W/m² | - |
| 1778000468 | 14.44° C | 54% | 1014.9 hPa | 0 mm | 1.79 m/s, 351° | 129 W/m² | - |
| 1778000168 | 15° C | 52% | 1014.7 hPa | 0 mm | 1.79 m/s, 25° | 130 W/m² | - |
| 1777999868 | 15.56° C | 49% | 1014.7 hPa | 0 mm | 1.79 m/s, 24° | 123 W/m² | - |
| 1777999568 | 16.11° C | 48% | 1014.8 hPa | 0 mm | 1.79 m/s, 337° | 180 W/m² | - |
| 1777999268 | 16.67° C | 46% | 1014.8 hPa | 0 mm | 1.34 m/s, 320° | 378 W/m² | - |
* Rain latest hour (hover to see other rain measurements)
** Current wind speed in m/s (hover to see current wind gust speed)